Weather History for Port Angeles, WA

Change the Weather History Date:

Monday, September 2, 2013

  Actual Average Record
Temperature  
Mean Temperature 62 °F -  
Max Temperature 70 °F 67 °F 84 °F (2003)
Min Temperature 55 °F 51 °F 41 °F (1960)
Degree Days  
Heating Degree Days 3    
Growing Degree Days 12 (Base 50)    
Moisture  
Dew Point 56 °F    
Average Humidity 81    
Maximum Humidity 93    
Minimum Humidity 61    
Precipitation  
Precipitation 0.00 in - - ()
Sea Level Pressure  
Sea Level Pressure 29.90 in    
Wind  
Wind Speed 3 mph (WNW)    
Max Wind Speed 12 mph    
Max Gust Speed -    
Visibility 10 miles    
Events      
Averages and records for this station are not official NWS values.
T = Trace of Precipitation, MM = Missing Value Source: NWS Daily Summary

Daily Weather History Graph

Daily Weather History Graph

Search for Another Location

Airport:

Trip Planner

Search our weather history database for the weather conditions in past years. The results will help you decide how hot, cold, wet, or windy it might be!

Date:

Astronomy

Sep. 02, 2013 Rise Set
Actual Time 6:33 AM PDT 7:52 PM PDT
Civil Twilight 6:01 AM PDT 8:24 PM PDT
Nautical Twilight 5:22 AM PDT 9:03 PM PDT
Astronomical Twilight 4:40 AM PDT 9:44 PM PDT
Moon 3:48 AM PDT (9/2) 6:14 PM PDT (9/2)
Length of Visible Light 14h 22m
Length of Day
13h 18m
Waning Crescent, 7% of the Moon is Illuminated
Sep 2
Waning Crescent
Sep 5
New
Sep 12
First Quarter
Sep 19
Full
Sep 26
Last Quarter

Hourly Weather History & Observations

Time (PDT) Temp. Dew Point Humidity Pressure Visibility Wind Dir Wind Speed Gust Speed Precip Events Conditions
12:53 AM 55.9 °F 53.1 °F 90% 29.87 in 10.0 mi Calm Calm - N/A   Clear
1:53 AM 55.0 °F 53.1 °F 93% 29.88 in 10.0 mi Calm Calm - N/A   Partly Cloudy
2:53 AM 57.0 °F 54.0 °F 89% 29.87 in 10.0 mi SW 4.6 mph - N/A   Mostly Cloudy
3:53 AM 55.9 °F 53.1 °F 90% 29.87 in 10.0 mi Calm Calm - N/A   Scattered Clouds
4:53 AM 55.9 °F 54.0 °F 93% 29.86 in 10.0 mi Calm Calm - N/A   Mostly Cloudy
5:53 AM 57.0 °F 54.0 °F 89% 29.87 in 10.0 mi Calm Calm - N/A   Partly Cloudy
6:53 AM 55.9 °F 54.0 °F 93% 29.89 in 10.0 mi Calm Calm - N/A   Overcast
7:53 AM 59.0 °F 55.9 °F 90% 29.89 in 10.0 mi West 3.5 mph - N/A   Overcast
8:53 AM 60.1 °F 55.9 °F 86% 29.90 in 10.0 mi West 5.8 mph - N/A   Overcast
9:53 AM 62.1 °F 55.9 °F 80% 29.91 in 10.0 mi WSW 3.5 mph - N/A   Overcast
10:53 AM 64.9 °F 55.0 °F 70% 29.90 in 10.0 mi Calm Calm - N/A   Overcast
11:53 AM 64.0 °F 54.0 °F 70% 29.90 in 10.0 mi Calm Calm - N/A   Mostly Cloudy
12:53 PM 68.0 °F 54.0 °F 61% 29.90 in 10.0 mi NE 4.6 mph - N/A   Partly Cloudy
1:53 PM 66.9 °F 55.0 °F 66% 29.90 in 10.0 mi North 4.6 mph - N/A   Overcast
2:53 PM 68.0 °F 55.0 °F 63% 29.91 in 10.0 mi North 3.5 mph - N/A   Overcast
3:53 PM 69.1 °F 55.9 °F 63% 29.90 in 10.0 mi NNW 4.6 mph - N/A   Mostly Cloudy
4:53 PM 66.9 °F 57.0 °F 70% 29.90 in 10.0 mi NNW 4.6 mph - N/A   Mostly Cloudy
5:53 PM 68.0 °F 57.0 °F 68% 29.91 in 10.0 mi WNW 4.6 mph - N/A   Mostly Cloudy
6:53 PM 63.0 °F 57.9 °F 84% 29.91 in 10.0 mi NW 9.2 mph - N/A   Partly Cloudy
7:10 PM 63.0 °F 59.0 °F 87% 29.91 in 10.0 mi WNW 8.1 mph - N/A   Mostly Cloudy
7:53 PM 62.1 °F 57.9 °F 86% 29.91 in 10.0 mi West 11.5 mph - N/A   Clear
8:53 PM 62.1 °F 57.0 °F 84% 29.92 in 10.0 mi West 9.2 mph - N/A   Scattered Clouds
9:00 PM 62.1 °F 57.0 °F 84% 29.92 in 10.0 mi West 9.2 mph - N/A   Mostly Cloudy
9:51 PM 62.6 °F 57.2 °F 82% 29.93 in 10.0 mi West 6.9 mph - N/A   Overcast
9:53 PM 62.1 °F 57.0 °F 84% 29.94 in 10.0 mi West 5.8 mph - N/A   Overcast
10:30 PM 62.1 °F 57.0 °F 84% 29.94 in 10.0 mi WSW 4.6 mph - N/A   Scattered Clouds
10:53 PM 61.0 °F 57.0 °F 87% 29.94 in 10.0 mi WSW 3.5 mph - N/A   Clear
11:53 PM 61.0 °F 57.9 °F 90% 29.96 in 10.0 mi SW 4.6 mph - N/A   Mostly Cloudy